Location: *
(44.1392°N, 4.8079°E)
Time: 07:08:44
(UTC+00:00)

ALOS - Pass Details

Date: 21 June 2021
Orbit: 683 x 684 km, 97.9° (Epoch: 03 August)

Event Time Altitude Azimuth Distance (km) Brightness Sun altitude
Rises 03:15:01 0° 20° (NNE) 3,059 6.9 -6.8°
Reaches altitude 10° 03:17:26 10° 29° (NNE) 2,138 6.2 -6.5°
Maximum altitude 03:21:46 37° 97° (E) 1,059 3.7 -5.9°
Drops below altitude 10° 03:26:04 10° 165° (SSE) 2,122 4.6 -5.3°
Sets 03:28:27 0° 173° (S) 3,033 5.3 -5.0°
